Regional Weather Roundup
Issued by NWS

Home | Current Version | Previous Version | Text Only | Print | Product List | Glossary Off
Versions: 1 2 3 4 5 6 7 8 9 10 11 12 13 14 15 16 17 18 19 20 21 22 23 24 25 26 27 28

000
ASUS45 KTFX 161310
RWRMT
MONTANA REGIONAL WEATHER ROUNDUP
NATIONAL WEATHER SERVICE GREAT FALLS MT
700 AM MDT WED AUG 16 2017

NOTE: "FAIR" INDICATES FEW OR NO CLOUDS BELOW 12000 FEET WITH NO
SIGNIFICANT WEATHER AND/OR OBSTRUCTIONS TO VISIBILITY.

MTZ001>007-043-161400-
WEST OF THE DIVIDE

CITY           SKY/WX    TMP DP  RH WIND       PRES   REMARKS
KALISPELL      CLEAR     40  39  97 CALM      29.99R
MISSOULA       CLEAR     45  35  68 CALM      30.05R
BUTTE          CLEAR     40  29  64 SE3       30.12R
MULLAN PASS    CLEAR     50  28  42 NW3       30.12R
ANACONDA         N/A     46  30  53 SW3       30.09R
DEER LODGE       N/A     41  34  75 CALM      30.11R
EUREKA           N/A     45  37  76 MISG      29.99R
HAMILTON         N/A     45  37  76 CALM      30.06R
LIBBY            N/A     43  36  75 CALM      29.99S
PLAINS           N/A     42  32  68 CALM      30.02R
RONAN            N/A     42  38  86 CALM      30.04R
$$

MTZ008-052>055-161400-
SOUTHWEST MONTANA

CITY           SKY/WX    TMP DP  RH WIND       PRES   REMARKS
BOZEMAN        CLEAR     46  39  76 SE6       30.06R
DILLON         CLEAR     48  38  68 S12       30.08R
W YELLOWSTONE  CLOUDY    32  32 100 CALM      30.20R
ENNIS          CLEAR     46  41  81 CALM      30.15R
THREE FORKS      N/A     42  37  82 CALM      30.04R
TWIN BRIDGES     N/A     47  37  68 CALM      30.06R
$$

MTZ009-010-012-014-046-048-049-054-161400-
EAST SLOPES AND CENTRAL MONTANA

CITY           SKY/WX    TMP DP  RH WIND       PRES   REMARKS
CUT BANK       CLEAR     47  35  63 NW3       29.97S
GREAT FALLS    CLEAR     48  28  46 SW8       29.98R
MALMSTROM AFB  CLEAR     49  34  56 SW6       29.98R
HELENA         CLEAR     53  34  48 NW3       30.03R
AUGUSTA          N/A     53  27  37 W9        30.01
BOWMANS CRNR     N/A     51  27  39 W8        30.00R
CHOTEAU          N/A     50  32  50 W5        30.00S
CONRAD           N/A     47  38  71 W3        29.99R
FAIRFIELD        N/A     49  35  58 CALM      29.98R
POWER            N/A     50  31  47 W3        29.97R
RAYNESFORD       N/A     45  33  63 CALM      30.01R
ULM              N/A     50  30  46 S6        29.99R
$$

MTZ011-013-016-021-045-047-050-051-161400-
NORTH CENTRAL MONTANA

CITY           SKY/WX    TMP DP  RH WIND       PRES   REMARKS
HAVRE          CLEAR     44  36  73 SW7       29.93R
LEWISTOWN      CLEAR     48  40  73 SE3       29.99R
N BAR RANCH      N/A     52  41  66 CALM      30.03R
CHINOOK          N/A     52  37  58 CALM      29.92S
DENTON           N/A     48  36  63 SW3       29.94R
GEYSER           N/A     56  31  38 SW16      29.98R
GRASS RANGE      N/A     53  41  64 SW9       29.94S
JUDITH GAP       N/A     49  40  70 S10       30.02R
WINIFRED         N/A     57  41  55 SW7       29.95R
$$

MTZ017>020-022>027-061-062-161400-
NORTHEAST MONTANA

CITY           SKY/WX    TMP DP  RH WIND       PRES   REMARKS
GLASGOW        CLEAR     55  45  68 E9        29.93R
JORDAN           N/A     48  35  60 NW3       29.95R
SIDNEY         FOG       54  54 100 CALM      29.96R VSB 3/4
WOLF POINT     CLEAR     50  47  89 CALM      29.95R
MALTA          CLEAR     50  43  76 CALM      29.93S
PLENTYWOOD       N/A     52  50  93 CALM      29.97R
POPLAR           N/A     54  50  87 CALM      29.95R
SCOBEY           N/A     42  37  82 CALM      29.95S
$$

MTZ028>42-056>058-161400-
SOUTHCENTRAL AND SOUTHEAST MONTANA

CITY           SKY/WX    TMP DP  RH WIND       PRES   REMARKS
BAKER          PTCLDY    50  49  96 CALM      29.99S
BILLINGS       PTCLDY    59  44  57 SW14      29.99R
LIVINGSTON     CLEAR     45  35  68 NW7       30.04S
MILES CITY     CLEAR     54  44  69 SE8       29.96S
BIG TIMBER     CLEAR     52  39  62 SW7       30.06R
EKALAKA          N/A     53  47  80 SE3       29.99S
FORSYTH          N/A     55  46  71 CALM      29.96R
HARLOWTON        N/A     48  37  65 MISG      30.02R
LAUREL           N/A     53  41  64 CALM      29.99F
$$

REGIONAL REPORTS...DAKOTAS

CITY           SKY/WX    TMP DP  RH WIND       PRES   REMARKS
WILLISTON      CLOUDY    56  55  97 CALM      29.95S
MINOT          FOG       60  59  96 W3        29.92R VSB 1/4
DICKINSON      FOG       54  54 100 NW8       29.94S VSB<1/4
BEACH            N/A     50  50 100 CALM      30.01S
CROSBY           N/A     52  52 100 CALM      29.96S
TIOGA            N/A     52  52 100 W3        29.97S
WATFORD CITY   FOG       55  55 100 SW5       29.95R VSB<1/4
BISMARCK       CLOUDY    61  59  93 N12       29.91R
GRAND FORKS    HVY RAIN  64  63  96 E7        29.85F FOG
FARGO          CLOUDY    64  64 100 SE8       29.84S
BUFFALO SD       N/A     53  52  96 W6        29.93R
RAPID CITY     CLOUDY    60  55  83 N12       29.97R
$$

REGIONAL REPORTS...WYOMING/IDAHO/WASHINGTON

CITY           SKY/WX    TMP DP  RH WIND       PRES   REMARKS
GILLETTE       CLEAR     54  46  74 W9        30.04S
SHERIDAN       CLEAR     48  44  86 CALM      30.03S
BUFFALO WY     CLEAR     55  36  48 W8        30.08S
CODY           CLEAR     57  41  55 SW8       30.09S
YELLOWSTONE LA   N/A     34  34 100 CALM      30.27R
IDAHO FALLS    CLEAR     44  43  96 N3        30.08R
SALMON         PTCLDY    46  42  86 CALM      30.08R
BOISE          PTCLDY    60  37  42 S6        29.97R
SPOKANE        PTCLDY    54  38  54 SE6       29.98R
$$

REGIONAL REPORTS...ALBERTA

CITY           SKY/WX    TMP DP  RH WIND       PRES   REMARKS
EDMONTON       CLOUDY    54  52  94 S2        29.87R
CALGARY        PTCLDY    48  43  81 SW2       29.93S
LETHBRIDGE     PTCLDY    48  39  71 W3        29.92R
MEDICINE HAT   CLEAR     46  43  87 S5        29.91R
$$

REGIONAL REPORTS...SASKATCHEWAN

CITY           SKY/WX    TMP DP  RH WIND       PRES   REMARKS
SWIFT CURRENT  CLOUDY    52  43  71 SW8       29.95R
REGINA         PTCLDY    50  46  87 S6        29.93S
SASKATOON      PTCLDY    48  46  93 SW7       29.90R
$$




USA.gov is the U.S. government's official web portal to all federal, state and local government web resources and services.